Weather History for Ashland, WI

Change the Weather History Date:

Monday, October 7, 2013

  Actual Average Record
Temperature  
Mean Temperature 50 °F -  
Max Temperature 62 °F 59 °F 84 °F (2007)
Min Temperature 36 °F 35 °F 22 °F (1954)
Degree Days  
Heating Degree Days 14    
Moisture  
Dew Point 41 °F    
Average Humidity 79    
Maximum Humidity 97    
Minimum Humidity 47    
Precipitation  
Precipitation 0.00 in - - ()
Sea Level Pressure  
Sea Level Pressure 29.90 in    
Wind  
Wind Speed 6 mph (West)    
Max Wind Speed 10 mph    
Max Gust Speed -    
Visibility 10 miles    
Events      
Averages and records for this station are not official NWS values.
T = Trace of Precipitation, MM = Missing Value Source: NWS Daily Summary

Daily Weather History Graph

Daily Weather History Graph

Search for Another Location

Airport:

Trip Planner

Search our weather history database for the weather conditions in past years. The results will help you decide how hot, cold, wet, or windy it might be!

Date:

Astronomy

Oct. 07, 2013 Rise Set
Actual Time 7:10 AM CDT 6:31 PM CDT
Civil Twilight 6:40 AM CDT 7:01 PM CDT
Nautical Twilight 6:05 AM CDT 7:36 PM CDT
Astronomical Twilight 5:30 AM CDT 8:11 PM CDT
Moon 10:12 AM CDT (10/7) 8:04 PM CDT (10/7)
Length of Visible Light 12h 21m
Length of Day
11h 20m
Waxing Crescent, 9% of the Moon is Illuminated
Oct 7
Waxing Crescent
Oct 11
First Quarter
Oct 18
Full
Oct 26
Last Quarter
Nov 3
New

Hourly Weather History & Observations

Time (CDT) Temp. Windchill Dew Point Humidity Pressure Visibility Wind Dir Wind Speed Gust Speed Precip Events Conditions
12:53 AM 41.0 °F 37.1 °F 39.9 °F 96% 29.79 in 10.0 mi WSW 5.8 mph - N/A   Clear
1:53 AM 43.0 °F 38.8 °F 41.0 °F 93% 29.78 in 10.0 mi SW 6.9 mph - N/A   Clear
2:53 AM 42.1 °F 37.1 °F 39.9 °F 92% 29.78 in 10.0 mi WSW 8.1 mph - N/A   Clear
3:53 AM 41.0 °F 36.4 °F 39.0 °F 93% 29.78 in 10.0 mi WSW 6.9 mph - N/A   Clear
4:53 AM 41.0 °F 35.8 °F 39.0 °F 93% 29.78 in 10.0 mi West 8.1 mph - N/A   Clear
5:53 AM 41.0 °F 36.4 °F 39.0 °F 93% 29.80 in 10.0 mi WSW 6.9 mph - N/A   Clear
6:53 AM 41.0 °F 35.8 °F 39.0 °F 93% 29.82 in 10.0 mi West 8.1 mph - N/A   Clear
7:53 AM 42.1 °F 38.4 °F 39.9 °F 92% 29.84 in 10.0 mi West 5.8 mph - N/A   Clear
8:53 AM 48.0 °F - 44.1 °F 86% 29.86 in 10.0 mi WNW 6.9 mph - N/A   Clear
9:53 AM 52.0 °F - 45.0 °F 77% 29.89 in 10.0 mi NW 8.1 mph - N/A   Clear
10:53 AM 55.0 °F - 45.0 °F 69% 29.91 in 10.0 mi NNW 10.4 mph - N/A   Clear
11:53 AM 57.0 °F - 44.1 °F 62% 29.92 in 10.0 mi NW 9.2 mph - N/A   Clear
12:53 PM 57.9 °F - 42.1 °F 56% 29.93 in 10.0 mi North 4.6 mph - N/A   Partly Cloudy
1:53 PM 59.0 °F - 41.0 °F 51% 29.93 in 10.0 mi WNW 6.9 mph - N/A   Partly Cloudy
2:53 PM 62.1 °F - 42.1 °F 48% 29.94 in 10.0 mi WNW 6.9 mph - N/A   Mostly Cloudy
3:53 PM 60.1 °F - 41.0 °F 49% 29.94 in 10.0 mi West 8.1 mph - N/A   Scattered Clouds
4:53 PM 60.1 °F - 39.9 °F 47% 29.94 in 10.0 mi WNW 5.8 mph - N/A   Clear
5:53 PM 57.0 °F - 42.1 °F 57% 29.95 in 10.0 mi Calm Calm - N/A   Clear
6:53 PM 46.0 °F 44.8 °F 43.0 °F 89% 29.96 in 10.0 mi SSW 3.5 mph - N/A   Clear
7:53 PM 44.1 °F 42.5 °F 42.1 °F 93% 29.99 in 10.0 mi South 3.5 mph - N/A   Clear
8:53 PM 45.0 °F 43.5 °F 41.0 °F 86% 30.00 in 10.0 mi SSW 3.5 mph - N/A   Clear
9:53 PM 41.0 °F 38.0 °F 39.0 °F 93% 30.00 in 10.0 mi SSW 4.6 mph - N/A   Clear
10:53 PM 39.9 °F - 37.9 °F 93% 30.01 in 10.0 mi Calm Calm - N/A   Clear
11:53 PM 36.0 °F - 35.1 °F 97% 30.01 in 10.0 mi Calm Calm - N/A   Clear